Simultaneous Nadir Overpasses (SNOs) Predictions

Prediction of SNOs between GOES-16 and NOAA-19 Satellite Orbit:

Table of predicted SNOs for the next 14.0 days since TLE Epoch: 2/2/2018
Index Date Time (GOES-16) GOES-16 Lat,Lon NOAA-19 Lat,Lon Distance(km) Time Diff (sec)
1 02/03/2018 21:00:46 -0.03, -75.18 -0.93, -79.00 436.63 80
2 02/04/2018 20:49:16 -0.03, -75.18 -0.24, -76.20 115.21 80
3 02/05/2018 20:40:24 -0.03, -75.19 0.40, -73.39 206.48 80
4 02/08/2018 09:01:47 0.04, -75.23 0.80, -78.46 369.67 80
5 02/09/2018 08:50:17 0.04, -75.24 0.12, -75.66 47.84 80
6 02/10/2018 08:36:05 0.04, -75.25 -0.51, -72.85 274.21 80
7 02/12/2018 20:57:31 -0.05, -75.29 -0.66, -77.94 302.72 80
8 02/13/2018 20:48:40 -0.05, -75.30 -0.02, -75.13 19.97 80
9 02/14/2018 20:37:08 -0.06, -75.32 0.62, -72.32 342.79 80




NCC Satellite Simultaneous Nadir Overpasses (SNOs) Prediction Service
